This is the latest recevied weather packets stored in our database for station/object SP3ZBZ-13. If no packets are shown the sender has not sent any weather packets the latest 10 day(s).
| Time | Temp. | Humidity | Pressure | Rain* | Wind** | Luminosity | Snow |
|---|---|---|---|---|---|---|---|
| 1788200320 | 19.44° C | 76% | 1007.1 hPa | - | - | - | - |
| 1788199419 | 19.44° C | 76% | 1007 hPa | - | - | - | - |
| 1788198518 | 19.44° C | 75% | 1006.9 hPa | - | - | 1 W/m² | - |
| 1788197617 | 20° C | 73% | 1006.8 hPa | - | - | 6 W/m² | - |
| 1788196716 | 21.11° C | 70% | 1006.8 hPa | - | - | 18 W/m² | - |
| 1788195815 | 20.56° C | 71% | 1006.7 hPa | - | - | 22 W/m² | - |
| 1788194914 | 21.11° C | 71% | 1006.8 hPa | - | - | 39 W/m² | - |
| 1788194013 | 21.67° C | 68% | 1006.7 hPa | - | - | 50 W/m² | - |
| 1788193112 | 22.22° C | 67% | 1006.7 hPa | - | - | 46 W/m² | - |
| 1788192211 | 21.67° C | 68% | 1006.7 hPa | - | - | 94 W/m² | - |
| 1788191310 | 21.67° C | 65% | 1006.9 hPa | - | - | 130 W/m² | - |
| 1788190408 | 22.78° C | 63% | 1006.9 hPa | - | - | 165 W/m² | - |
| 1788189511 | 22.78° C | 63% | 1006.9 hPa | - | - | 202 W/m² | - |
| 1788188607 | 22.78° C | 63% | 1006.9 hPa | - | - | 249 W/m² | - |
| 1788187706 | 21.67° C | 69% | 1007.1 hPa | - | - | 114 W/m² | - |
| 1788186805 | 21.67° C | 69% | 1007.1 hPa | - | - | 159 W/m² | - |
| 1788185904 | 21.67° C | 73% | 1007.3 hPa | - | - | 198 W/m² | - |
| 1788185003 | 21.67° C | 70% | 1007.3 hPa | - | - | 256 W/m² | - |
| 1788184101 | 21.67° C | 71% | 1007.2 hPa | - | - | 192 W/m² | - |
| 1788183218 | 21.67° C | 69% | 1007.2 hPa | - | - | 119 W/m² | - |
| 1788182300 | 21.67° C | 69% | 1007.2 hPa | - | - | 111 W/m² | - |
| 1788181399 | 22.78° C | 65% | 1007.2 hPa | - | - | 190 W/m² | - |
| 1788180497 | 21.67° C | 67% | 1007.3 hPa | - | - | 260 W/m² | - |
| 1788179597 | 21.67° C | 69% | 1007.4 hPa | - | - | 273 W/m² | - |
| 1788178695 | 21.67° C | 69% | 1007.5 hPa | - | - | 213 W/m² | - |
* Rain since midnight (hover to see other rain measurements)
** Current wind speed in m/s (hover to see current wind gust speed)